Location: Waning Moon II Observatory
(30.3730°N, 89.7620°W)
Time: 14:39:28
(UTC-05:00)

Daily predictions for brighter satellites

Satellite Brightness Start Highest point End
(mag) Time Altitude Azimuth Time Altitude Azimuth Time Altitude Azimuth
NOSS 3-1 (A) 4.2 19:41:43 10° NNW 19:49:44 81° ENE 19:58:24 10° SSE
NOSS 3-1 (C) 4.5 19:41:54 10° NNW 19:49:53 76° WSW 19:58:31 10° SSE
Cosmos 1726 3.2 19:48:44 10° SSW 19:52:24 52° W 19:56:04 10° N
NOSS 3-3 (A) 4.3 19:51:26 10° S 19:56:51 40° ESE 20:02:37 10° NE
NOSS 3-3 (C) 4.3 19:51:33 10° S 19:56:58 39° ESE 20:02:42 10° NE
OAO 2 Rocket 4.1 19:53:57 10° WNW 19:59:03 50° N 20:04:02 10° ENE
YAOGAN 6 4.3 20:01:53 10° ESE 20:04:08 16° ENE 20:06:23 10° NNE
H-2A R/B 3.7 20:01:23 10° S 20:04:57 50° W 20:08:36 10° NNW
Cosmos 494 Rocket 4.5 20:03:44 10° N 20:08:38 41° ENE 20:13:33 10° SE
Cosmos 1340 3.0 20:08:24 10° SSE 20:11:58 42° E 20:15:34 10° NNE
Sich 1 4.1 20:11:58 10° NNE 20:15:28 24° E 20:18:08 14° SE
In-Cosmos 22 Rocket 4.4 20:10:51 10° N 20:16:04 46° E 20:21:09 10° SSE
USA 267 4.3 20:11:21 10° ENE 20:16:05 21° ESE 20:20:47 10° S
Cosmos 1939 Rocket 4.0 20:16:06 14° ESE 20:18:26 24° ENE 20:21:36 10° NNE
SJ-6B 2.9 20:15:10 10° SSE 20:19:13 65° ENE 20:23:11 10° N
ASTRO E2 4.3 20:19:18 10° SSW 20:22:03 18° SSE 20:23:06 16° SE
Envisat 3.0 20:17:34 10° SSE 20:22:35 67° ENE 20:27:37 10° N
Cosmos 2228 Rocket 4.3 20:32:02 21° E 20:32:36 21° E 20:35:56 10° NE
Cosmos 1633 Rocket 3.9 20:30:29 10° NNE 20:34:20 30° E 20:35:51 24° ESE
SL-8 R/B 3.6 20:30:38 10° SW 20:35:22 68° SE 20:40:08 10° NE
ATLAS 2A CENTAUR R/B 4.4 20:07:53 10° W 20:37:36 50° SW 20:42:27 18° SE
Cosmos 2154 Rocket 4.0 20:39:32 10° S 20:45:49 90° SW 20:52:06 10° N
Thor Agena Rocket 4.1 20:42:55 10° N 20:48:06 63° WNW 20:53:18 10° SSW
Meteor 2-2 Rocket 4.3 20:46:28 10° S 20:52:15 84° W 20:58:11 10° N
GEOS 3 Rocket 4.1 20:49:28 10° NE 20:54:22 37° ESE 20:59:07 10° S
Resurs 01 Rocket 1.6 20:52:33 29° SSE 20:54:45 66° ENE 20:59:10 10° N
Cosmos 1980 3.8 20:49:39 10° S 20:55:08 53° ESE 21:00:38 10° NNE
Meteor 1-27 4.2 20:49:33 10° S 20:55:18 72° E 21:00:59 10° NNE
Cosmos 1805 Rocket 4.1 20:53:35 10° NNW 20:57:50 57° W 21:02:03 10° S
GPS 2-05 Rocket1 2.7 20:54:58 10° WNW 20:58:19 69° SSW 20:58:35 64° SSE
Cosmos 1328 Rocket 3.4 20:55:29 14° S 20:59:09 74° E 21:03:34 10° N
Sakura Rocket 2.8 20:54:59 10° WSW 20:59:25 58° S 20:59:59 51° SE
ATLAS 3B CENTAUR R/B 3.7 20:47:00 10° W 20:59:41 39° SW 21:03:20 22° SSE
Cosmos 2333 Rocket 2.3 20:55:41 10° SSW 21:01:21 78° WNW 21:07:01 10° NNE
Spot 2 Rocket 3.5 21:03:43 37° SE 21:05:41 65° ENE 21:10:44 10° N
Cosmos 2341 Rocket 4.0 20:59:42 10° S 21:06:05 87° E 21:12:27 10° N
COSMOS 2428 4.2 21:01:24 10° SW 21:06:42 38° WNW 21:12:02 10° N
Cosmos 1455 2.5 21:07:46 17° SSW 21:10:32 64° W 21:14:20 10° N
SJ-11-01 4.2 21:11:42 41° SSE 21:13:21 90° SSE 21:18:02 10° NNW
Cosmos 2218 Rocket 4.1 21:11:56 37° SE 21:14:04 51° E 21:20:13 10° NNE
deb Centaur AC-2 4.0 21:10:12 10° W 21:14:40 87° S 21:15:31 60° E
Cosmos 1470 Rocket 4.1 21:11:15 10° N 21:14:52 43° NE 21:14:52 43° NE
ATLAS 2AS CENTAUR R/B 3.4 21:08:57 10° NNW 21:16:16 42° NE 21:18:17 35° E
ERS-2 4.1 21:13:44 12° SSW 21:16:27 27° W 21:19:35 10° NW
Delta 128 4.5 21:11:14 10° W 21:16:45 57° S 21:18:20 45° SE
Cosmos 1844 Rocket 2.7 21:14:58 10° NNW 21:20:38 77° WSW 21:22:47 39° S
Cosmos 1844 3.6 21:15:17 10° NNW 21:21:00 80° ENE 21:22:30 51° SSE
ATLAS 2A CENTAUR R/B 3.9 21:02:11 10° SW 21:21:17 49° SSE 21:24:57 37° ESE
Cosmos 1892 3.4 21:18:13 10° NNW 21:22:00 52° W 21:22:50 42° SW
Cosmos 2237 Rocket 2.1 21:17:26 10° SSW 21:23:02 89° ESE 21:28:41 10° NNE
Cosmos 2219 Rocket 3.5 21:18:51 10° SW 21:24:07 40° WNW 21:29:25 10° N
ATLAS CENTAUR R/B 2.9 21:23:11 10° WSW 21:26:26 31° WNW 21:29:48 10° N
Cosmos 2366 rocket 3.9 21:27:19 53° SE 21:28:24 61° E 21:34:32 10° NNE
NOSS 0 Rocket 4.4 21:26:52 10° SSW 21:32:55 61° WNW 21:39:03 10° NNE
NOAA 11 4.3 21:35:18 50° S 21:36:45 74° WSW 21:42:15 10° NNW
H-2A R/B 3.2 21:39:07 30° NE 21:39:07 30° NE 21:42:12 10° N
Cosmos 2278 Rocket 2.8 21:32:35 10° N 21:37:23 42° NE 21:37:23 42° NE
SL-8 Rocket 4.0 21:34:30 23° S 21:38:38 79° W 21:44:57 10° N
OAO 2 Rocket 3.5 21:39:04 10° WNW 21:43:55 68° NNW 21:43:55 68° NNW
Cosmos 1933 Rocket 4.4 21:39:55 10° N 21:42:57 44° N 21:42:57 44° N
ERS-1 Rocket 4.2 21:50:18 30° NNE 21:50:18 30° NNE 21:53:10 10° N
Cosmos 1371 Rocket 4.1 21:50:10 74° NNW 21:50:10 74° NNW 21:55:10 10° NNE
Cosmos 1151 Rocket 4.2 21:50:12 37° W 21:50:33 38° W 21:54:33 10° NNW
USA 267 3.3 21:52:48 10° NE 21:59:20 77° NW 22:05:51 10° SW
BREEZE-M DEB (TANK) 4.4 21:42:57 10° NW 22:01:02 45° WSW 22:02:21 40° SSW
Cosmos 2344 4.2 22:10:54 39° NE 22:10:54 39° NE 22:15:38 10° NE
Cosmos 2056 Rocket 4.5 22:13:06 44° NNW 22:13:06 44° NNW 22:16:55 10° N
SL-16 R/B 3.8 22:15:04 25° NNE 22:15:04 25° NNE 22:17:22 10° NNE
ARGOS 4.2 22:26:04 41° NW 22:26:04 41° NW 22:29:53 10° NNW
ATLAS 2AS CENTAUR R/B 4.1 23:00:23 10° NW 23:05:45 31° W 23:05:45 31° W
